Change the Weather History Date:

Tuesday, February 25, 2014

  Actual Average Record
Temperature  
Mean Temperature 2 °F -  
Max Temperature 10 °F 33 °F 55 °F (1976)
Min Temperature -7 °F 14 °F -9 °F (2003)
Degree Days  
Heating Degree Days 64    
Moisture  
Dew Point -6 °F    
Average Humidity 72    
Maximum Humidity 83    
Minimum Humidity 61    
Precipitation  
Precipitation 0.00 in - - ()
Sea Level Pressure  
Sea Level Pressure 30.45 in    
Wind  
Wind Speed 13 mph (WNW)    
Max Wind Speed 25 mph    
Max Gust Speed 32 mph    
Visibility 9 miles    
Events      
Averages and records for this station are not official NWS values.
T = Trace of Precipitation, MM = Missing Value Source: NWS Daily Summary

Daily Weather History Graph

Daily Weather History Graph

Search for Another Location

Airport or City:

Trip Planner

Search our weather history database for the weather conditions in past years. The results will help you decide how hot, cold, wet, or windy it might be!

Date:

Astronomy

Feb. 25, 2014 Rise Set
Actual Time 7:03 AM CST 6:04 PM CST
Civil Twilight 6:34 AM CST 6:33 PM CST
Nautical Twilight 6:01 AM CST 7:06 PM CST
Astronomical Twilight 5:28 AM CST 7:39 PM CST
Moon 4:03 AM CST (2/25) 2:07 PM CST (2/25)
Length of Visible Light 11h 59m
Length of Day
11h 01m
Waning Crescent, 18% of the Moon is Illuminated
Feb 25
Waning Crescent
Mar 1
New
Mar 8
First Quarter
Mar 16
Full
Mar 23
Last Quarter

Hourly Weather History & Observations

Time (CST) Temp. Windchill Dew Point Humidity Pressure Visibility Wind Dir Wind Speed Gust Speed Precip Events Conditions
12:53 AM 3.9 °F -13.0 °F -0.9 °F 80% 30.43 in 10.0 mi NNW 12.7 mph - 0.00 in   Partly Cloudy
1:53 AM -0.0 °F -14.2 °F -5.1 °F 79% 30.45 in 10.0 mi WNW 8.1 mph - N/A   Clear
2:53 AM -4.0 °F -19.0 °F -8.0 °F 83% 30.46 in 10.0 mi West 8.1 mph - N/A   Clear
3:53 AM -4.0 °F -20.2 °F -9.0 °F 79% 30.46 in 10.0 mi WSW 9.2 mph - N/A   Clear
4:53 AM -7.1 °F -21.4 °F -11.9 °F 79% 30.45 in 10.0 mi West 6.9 mph - N/A   Clear
5:53 AM -7.1 °F -23.9 °F -11.9 °F 79% 30.45 in 10.0 mi West 9.2 mph - N/A   Clear
6:53 AM -7.1 °F -23.9 °F -11.9 °F 79% 30.46 in 10.0 mi West 9.2 mph - N/A   Clear
7:53 AM -5.1 °F -23.5 °F -11.0 °F 76% 30.47 in 10.0 mi West 11.5 mph - N/A   Clear
8:53 AM -2.0 °F -21.9 °F -9.0 °F 72% 30.46 in 10.0 mi WNW 15.0 mph - N/A   Clear
9:53 AM 1.0 °F -17.3 °F -7.1 °F 69% 30.47 in 10.0 mi West 13.8 mph - N/A   Clear
10:53 AM 3.9 °F -14.3 °F -5.1 °F 66% 30.46 in 10.0 mi WNW 15.0 mph - N/A   Clear
11:53 AM 6.1 °F -13.8 °F -2.9 °F 67% 30.46 in 10.0 mi West 19.6 mph - N/A   Clear
12:53 PM 9.0 °F -10.0 °F -0.0 °F 67% 30.44 in 10.0 mi WNW 19.6 mph - N/A   Clear
1:53 PM 10.9 °F -9.2 °F -0.0 °F 61% 30.40 in 10.0 mi WNW 24.2 mph 28.8 mph N/A   Clear
2:53 PM 10.0 °F -10.4 °F -0.9 °F 61% 30.41 in 8.0 mi NW 24.2 mph 32.2 mph N/A   Clear
3:53 PM 9.0 °F -12.2 °F -0.9 °F 64% 30.42 in 7.0 mi NW 25.3 mph 32.2 mph N/A   Scattered Clouds
4:53 PM 7.0 °F -13.1 °F -2.9 °F 64% 30.43 in 10.0 mi NW 20.7 mph 29.9 mph N/A   Scattered Clouds
5:53 PM 5.0 °F -13.0 °F -2.9 °F 70% 30.46 in 10.0 mi NW 15.0 mph - N/A   Scattered Clouds
6:11 PM 5.0 °F -13.0 °F -2.0 °F 73% 30.35 in 2.0 mi NW 15.0 mph - 0.00 in   Mostly Cloudy
6:18 PM 5.0 °F -11.6 °F -0.9 °F 76% 30.35 in 1.2 mi NW 12.7 mph - 0.00 in   Overcast
6:22 PM 5.0 °F -13.0 °F -0.9 °F 76% 30.36 in 3.0 mi NW 15.0 mph - 0.00 in   Overcast
6:39 PM 3.9 °F -13.7 °F -2.9 °F 73% 30.36 in 10.0 mi NNW 13.8 mph - 0.00 in   Scattered Clouds
6:53 PM 3.0 °F -12.5 °F -4.0 °F 73% 30.49 in 10.0 mi NNW 10.4 mph - 0.00 in   Clear
7:53 PM -0.0 °F -16.3 °F -7.1 °F 72% 30.51 in 10.0 mi WNW 10.4 mph - N/A   Clear
8:53 PM -0.9 °F -16.4 °F -8.0 °F 72% 30.52 in 10.0 mi WNW 9.2 mph - N/A   Clear
9:53 PM -2.0 °F -18.7 °F -9.0 °F 72% 30.53 in 10.0 mi WNW 10.4 mph - N/A   Clear
10:53 PM -2.9 °F -19.8 °F -9.9 °F 72% 30.51 in 10.0 mi WNW 10.4 mph - N/A   Clear
11:53 PM -5.1 °F -21.5 °F -11.0 °F 76% 30.50 in 10.0 mi WNW 9.2 mph - N/A   Clear